• In Romania
  • List of Countries
  • For 7 days
  • Water Temperature
  • Satellite Maps
  • Weather Map
  • Weather Widgets
  • user-avatar
    Login

    Hourly Weather Zinovka

    Today, 20 September, Thursday

    Time Temperature Precipitation Wind Pressure Humidity
    00:00 +15°C° 0 mm 4 mps 746 mmHg 85%
    01:00 +15°C° 0 mm 4 mps 746 mmHg 88%
    02:00 +15°C° 0 mm 4 mps 746 mmHg 91%
    03:00 +14°C° 0 mm 4 mps 746 mmHg 93%
    04:00 +14°C° 0 mm 4 mps 746 mmHg 94%
    05:00 +14°C° 0 mm 4 mps 745 mmHg 94%
    06:00 +14°C° 0 mm 4 mps 745 mmHg 95%
    07:00 +15°C° 0 mm 4 mps 745 mmHg 91%
    08:00 +17°C° 0 mm 4 mps 745 mmHg 87%
    09:00 +19°C° 0 mm 5 mps 745 mmHg 83%
    10:00 +20°C° 0 mm 5 mps 745 mmHg 77%
    11:00 +22°C° 0 mm 6 mps 745 mmHg 72%
    12:00 +23°C° 0 mm 6 mps 746 mmHg 66%
    13:00 +24°C° 0 mm 6 mps 745 mmHg 64%
    14:00 +24°C° 0 mm 6 mps 745 mmHg 62%
    15:00 +24°C° 0 mm 6 mps 745 mmHg 60%
    16:00 +23°C° 0 mm 5 mps 746 mmHg 64%
    17:00 +22°C° 0 mm 4 mps 746 mmHg 68%
    18:00 +21°C° 0 mm 3 mps 746 mmHg 72%
    19:00 +20°C° 0 mm 3 mps 746 mmHg 75%
    20:00 +19°C° 0 mm 3 mps 746 mmHg 78%
    21:00 +17°C° 0 mm 3 mps 747 mmHg 81%
    22:00 +17°C° 0 mm 3 mps 747 mmHg 83%
    23:00 +16°C° 0 mm 2 mps 747 mmHg 85%

    Tomorrow, 21 September, Friday

    Time Temperature Precipitation Wind Pressure Humidity
    00:00 +15°C° 0 mm 2 mps 747 mmHg 86%
    01:00 +15°C° 0 mm 2 mps 748 mmHg 88%
    02:00 +15°C° 0 mm 2 mps 748 mmHg 89%
    03:00 +14°C° 0 mm 1 mps 748 mmHg 90%
    04:00 +14°C° 0 mm 1 mps 748 mmHg 91%
    05:00 +14°C° 0 mm 1 mps 748 mmHg 91%
    06:00 +14°C° 0 mm 1 mps 749 mmHg 92%
    07:00 +15°C° 0 mm 1 mps 749 mmHg 86%
    08:00 +18°C° 0 mm 1 mps 749 mmHg 81%
    09:00 +18°C° 0 mm 2 mps 750 mmHg 76%
    10:00 +19°C° 0 mm 2 mps 750 mmHg 70%
    11:00 +21°C° 0 mm 2 mps 750 mmHg 64%
    12:00 +23°C° 0 mm 2 mps 750 mmHg 58%
    13:00 +24°C° 0 mm 2 mps 750 mmHg 56%
    14:00 +24°C° 0 mm 2 mps 750 mmHg 53%
    15:00 +25°C° 0 mm 2 mps 750 mmHg 51%
    16:00 +24°C° 0 mm 1 mps 749 mmHg 55%
    17:00 +23°C° 0 mm 1 mps 749 mmHg 60%
    18:00 +21°C° 0 mm 1 mps 749 mmHg 65%
    19:00 +21°C° 0 mm 1 mps 749 mmHg 67%
    20:00 +20°C° 0 mm 1 mps 750 mmHg 69%
    21:00 +19°C° 0 mm 1 mps 750 mmHg 72%
    22:00 +18°C° 0 mm 1 mps 750 mmHg 73%
    23:00 +18°C° 0 mm 1 mps 750 mmHg 75%

    Day after tomorrow, 22 September, Saturday

    Time Temperature Precipitation Wind Pressure Humidity
    00:00 +17°C° 0 mm 2 mps 750 mmHg 77%
    01:00 +16°C° 0 mm 2 mps 750 mmHg 78%
    02:00 +16°C° 0 mm 2 mps 750 mmHg 80%
    03:00 +16°C° 0 mm 2 mps 749 mmHg 81%
    04:00 +15°C° 0 mm 2 mps 749 mmHg 82%
    05:00 +14°C° 0 mm 3 mps 749 mmHg 83%
    06:00 +14°C° 0 mm 3 mps 749 mmHg 84%
    07:00 +16°C° 0 mm 3 mps 749 mmHg 79%
    08:00 +17°C° 0 mm 4 mps 749 mmHg 73%
    09:00 +19°C° 0 mm 4 mps 749 mmHg 68%
    10:00 +20°C° 0 mm 5 mps 748 mmHg 64%
    11:00 +22°C° 0 mm 5 mps 748 mmHg 59%
    12:00 +23°C° 0 mm 5 mps 748 mmHg 55%
    13:00 +25°C° 0 mm 5 mps 748 mmHg 54%
    14:00 +25°C° 0 mm 5 mps 747 mmHg 53%
    15:00 +26°C° 0 mm 6 mps 747 mmHg 51%
    16:00 +25°C° 0 mm 5 mps 746 mmHg 56%
    17:00 +23°C° 0 mm 4 mps 746 mmHg 61%
    18:00 +21°C° 0 mm 4 mps 745 mmHg 65%
    19:00 +21°C° 0 mm 4 mps 745 mmHg 66%
    20:00 +20°C° 0 mm 4 mps 745 mmHg 66%
    21:00 +19°C° 0 mm 5 mps 745 mmHg 66%
    22:00 +19°C° 0 mm 5 mps 744 mmHg 65%
    23:00 +19°C° 0 mm 5 mps 744 mmHg 64%

    23 September, Sunday

    Time Temperature Precipitation Wind Pressure Humidity
    00:00 +19°C° 0 mm 5 mps 743 mmHg 63%
    01:00 +17°C° 0 mm 5 mps 743 mmHg 63%
    02:00 +17°C° 0 mm 5 mps 743 mmHg 62%
    03:00 +17°C° 0 mm 5 mps 742 mmHg 62%
    04:00 +17°C° 0 mm 5 mps 742 mmHg 63%
    05:00 +16°C° 0 mm 5 mps 741 mmHg 64%
    06:00 +17°C° 0 mm 4 mps 741 mmHg 66%
    07:00 +17°C° 0.1 mm 4 mps 741 mmHg 66%
    08:00 +18°C° 0.1 mm 4 mps 740 mmHg 67%
    09:00 +18°C° 0.1 mm 4 mps 740 mmHg 68%
    10:00 +17°C° 0.3 mm 4 mps 740 mmHg 71%
    11:00 +15°C° 0.3 mm 4 mps 739 mmHg 74%
    12:00 +15°C° 0.3 mm 5 mps 739 mmHg 77%
    13:00 +13°C° 0.9 mm 5 mps 739 mmHg 80%
    14:00 +10°C° 0.9 mm 6 mps 740 mmHg 83%
    15:00 +8°C° 0.9 mm 7 mps 740 mmHg 86%
    16:00 +9°C° 0.3 mm 6 mps 740 mmHg 85%
    17:00 +9°C° 0.3 mm 6 mps 740 mmHg 84%
    18:00 +9°C° 0.3 mm 5 mps 741 mmHg 83%
    19:00 +9°C° 0 mm 5 mps 741 mmHg 85%
    20:00 +10°C° 0 mm 4 mps 741 mmHg 87%
    21:00 +8°C° 0 mm 4 mps 741 mmHg 89%
    22:00 +8°C° 0 mm 4 mps 741 mmHg 89%
    23:00 +8°C° 0 mm 4 mps 741 mmHg 90%

    24 September, Monday

    Time Temperature Precipitation Wind Pressure Humidity
    00:00 +8°C° 0 mm 4 mps 741 mmHg 90%
    01:00 +7°C° 0 mm 4 mps 742 mmHg 91%
    02:00 +7°C° 0 mm 4 mps 742 mmHg 91%
    03:00 +7°C° 0 mm 4 mps 742 mmHg 91%
    04:00 +7°C° 0 mm 4 mps 742 mmHg 92%
    05:00 +6°C° 0 mm 4 mps 742 mmHg 93%
    06:00 +6°C° 0 mm 4 mps 742 mmHg 94%
    07:00 +7°C° 0 mm 4 mps 743 mmHg 89%
    08:00 +8°C° 0 mm 4 mps 743 mmHg 84%
    09:00 +10°C° 0 mm 4 mps 743 mmHg 80%
    10:00 +10°C° 0 mm 5 mps 743 mmHg 74%
    11:00 +12°C° 0 mm 5 mps 743 mmHg 67%
    12:00 +14°C° 0 mm 5 mps 743 mmHg 61%
    13:00 +14°C° 0 mm 5 mps 743 mmHg 59%
    14:00 +14°C° 0 mm 5 mps 743 mmHg 56%
    15:00 +15°C° 0 mm 4 mps 743 mmHg 54%
    16:00 +14°C° 0 mm 4 mps 742 mmHg 57%
    17:00 +13°C° 0 mm 4 mps 741 mmHg 60%
    18:00 +12°C° 0 mm 4 mps 741 mmHg 63%
    19:00 +12°C° 0.3 mm 4 mps 740 mmHg 65%
    20:00 +12°C° 0.3 mm 5 mps 740 mmHg 66%
    21:00 +12°C° 0.3 mm 5 mps 739 mmHg 67%
    22:00 +11°C° 0.8 mm 6 mps 739 mmHg 68%
    23:00 +10°C° 0.8 mm 7 mps 738 mmHg 69%

    25 September, Tuesday

    Time Temperature Precipitation Wind Pressure Humidity
    00:00 +10°C° 0.8 mm 8 mps 737 mmHg 70%
    01:00 +11°C° 0.5 mm 8 mps 736 mmHg 68%
    02:00 +11°C° 0.5 mm 8 mps 735 mmHg 66%
    03:00 +11°C° 0.5 mm 8 mps 734 mmHg 64%
    04:00 +10°C° 1.2 mm 9 mps 733 mmHg 69%
    05:00 +10°C° 1.2 mm 9 mps 732 mmHg 75%
    06:00 +8°C° 1.2 mm 9 mps 732 mmHg 80%
    07:00 +10°C° 0.2 mm 9 mps 732 mmHg 80%
    08:00 +10°C° 0.2 mm 8 mps 732 mmHg 80%
    09:00 +11°C° 0.2 mm 8 mps 732 mmHg 80%
    10:00 +11°C° 0 mm 8 mps 732 mmHg 77%
    11:00 +11°C° 0 mm 8 mps 732 mmHg 75%
    12:00 +11°C° 0 mm 8 mps 732 mmHg 72%
    13:00 +11°C° 0.1 mm 8 mps 732 mmHg 71%
    14:00 +11°C° 0.1 mm 9 mps 732 mmHg 70%
    15:00 +11°C° 0.1 mm 9 mps 731 mmHg 68%
    16:00 +10°C° 0.1 mm 9 mps 732 mmHg 71%
    17:00 +10°C° 0.1 mm 9 mps 732 mmHg 74%
    18:00 +10°C° 0.1 mm 9 mps 732 mmHg 77%
    19:00 +9°C° 0 mm 8 mps 733 mmHg 77%
    20:00 +9°C° 0 mm 8 mps 733 mmHg 77%
    21:00 +9°C° 0 mm 8 mps 734 mmHg 78%
    22:00 +7°C° 0 mm 8 mps 734 mmHg 78%
    23:00 +7°C° 0 mm 8 mps 735 mmHg 77%
    Show more